User: anonymous   Login
Location: Newark
(53.3333°N, 83.7500°E)
Time: 01:02:52
(UTC+00:00)
Language:

SR - Orbit

View from above orbital plane
View from above orbital plane
View from above satellite
View from above satellite

Ground track
Ground track

The orbit data is extracted from the following two-line orbital elements,

1    46U 60007B   19321.36167943  .00000002  00000-0  23526-4 0  9992
2    46  66.6904 262.2954 0217190 289.3417  68.4323 14.49258346108222
Epoch (UTC): 17 November 2019 08:40:49
Eccentricity: 0.0217190
inclination: 66.6904°
perigee height: 574 km
apogee height: 882 km
right ascension of ascending node: 262.2954°
argument of perigee: 289.3417°
revolutions per day: 14.49258346
mean anomaly at epoch: 68.4323°
orbit number at epoch: 10822

The dashed part of the orbit path shows where the satellite is in the earth's shadow,  

DLR